Time,TemperatureF,DewpointF,PressureIn,WindDirection,WindDirectionDegrees,WindSpeedMPH,WindSpeedGustMPH,Humidity,HourlyPrecipIn,Conditions,Clouds,dailyrainin,SoftwareType,DateUTC
2013-04-19 00:04:00,45.9,43.1,30.27,North,0,0.0,0.0,90,0.00,,,0.00,WeatherCatV1.15B25,2013-04-19 07:04:00,
2013-04-19 00:09:00,45.8,43.0,30.27,North,0,0.0,0.0,90,0.00,,,0.00,WeatherCatV1.15B25,2013-04-19 07:09:00,
2013-04-19 00:14:00,45.7,42.9,30.27,North,0,0.0,0.0,90,0.00,,,0.00,WeatherCatV1.15B25,2013-04-19 07:14:00,
2013-04-19 00:19:00,45.6,42.8,30.27,North,0,0.0,0.0,90,0.00,,,0.00,WeatherCatV1.15B25,2013-04-19 07:19:00,
2013-04-19 00:24:00,45.5,42.7,30.27,North,0,0.0,0.0,90,0.00,,,0.00,WeatherCatV1.15B25,2013-04-19 07:24:00,
2013-04-19 00:29:00,45.4,42.6,30.27,North,0,1.0,1.0,90,0.00,,,0.00,WeatherCatV1.15B25,2013-04-19 07:29:00,
2013-04-19 00:34:00,45.4,42.6,30.27,North,0,0.0,1.0,90,0.00,,,0.00,WeatherCatV1.15B25,2013-04-19 07:34:00,
2013-04-19 00:39:00,45.3,42.5,30.28,North,5,2.0,2.0,90,0.00,,,0.00,WeatherCatV1.15B25,2013-04-19 07:39:00,
2013-04-19 00:44:00,45.4,42.9,30.28,North,355,1.0,1.0,91,0.00,,,0.00,WeatherCatV1.15B25,2013-04-19 07:44:00,
2013-04-19 00:49:00,45.6,43.1,30.28,North,355,1.0,1.0,91,0.00,,,0.00,WeatherCatV1.15B25,2013-04-19 07:49:00,
2013-04-19 00:54:00,45.7,43.2,30.28,North,0,1.0,3.0,91,0.00,,,0.00,WeatherCatV1.15B25,2013-04-19 07:54:00,
2013-04-19 00:59:00,45.8,43.3,30.28,North,9,0.0,0.0,91,0.00,,,0.00,WeatherCatV1.15B25,2013-04-19 07:59:00,
2013-04-19 01:04:00,45.8,43.3,30.28,North,9,1.0,1.0,91,0.00,,,0.00,WeatherCatV1.15B25,2013-04-19 08:04:00,
2013-04-19 01:09:00,45.8,43.3,30.28,North,9,0.0,1.0,91,0.00,,,0.00,WeatherCatV1.15B25,2013-04-19 08:09:00,
2013-04-19 01:14:00,45.7,43.2,30.28,North,9,0.0,1.0,91,0.00,,,0.00,WeatherCatV1.15B25,2013-04-19 08:14:00,
2013-04-19 01:19:00,45.7,43.2,30.27,North,9,0.0,0.0,91,0.00,,,0.00,WeatherCatV1.15B25,2013-04-19 08:19:00,
2013-04-19 01:24:00,45.7,43.2,30.28,North,9,0.0,0.0,91,0.00,,,0.00,WeatherCatV1.15B25,2013-04-19 08:24:00,
2013-04-19 01:29:00,45.7,43.2,30.28,North,9,0.0,0.0,91,0.00,,,0.00,WeatherCatV1.15B25,2013-04-19 08:29:00,
2013-04-19 01:34:00,45.6,43.1,30.28,North,9,0.0,0.0,91,0.00,,,0.00,WeatherCatV1.15B25,2013-04-19 08:34:00,
2013-04-19 01:39:00,45.3,42.8,30.28,North,9,0.0,0.0,91,0.00,,,0.00,WeatherCatV1.15B25,2013-04-19 08:39:00,
2013-04-19 01:44:00,45.1,42.6,30.27,North,9,0.0,0.0,91,0.00,,,0.00,WeatherCatV1.15B25,2013-04-19 08:44:00,
2013-04-19 01:45:00,45.1,42.6,30.27,North,9,0.0,0.0,91,0.00,,,0.00,WeatherCatV1.15B25,2013-04-19 08:45:00,
2013-04-19 01:50:00,45.2,42.7,30.27,North,9,0.0,1.0,91,0.00,,,0.00,WeatherCatV1.15B25,2013-04-19 08:50:00,
2013-04-19 01:55:00,45.3,43.1,30.28,North,9,0.0,1.0,92,0.00,,,0.00,WeatherCatV1.15B25,2013-04-19 08:55:00,
2013-04-19 02:00:00,45.2,42.7,30.28,North,9,0.0,0.0,91,0.00,,,0.00,WeatherCatV1.15B25,2013-04-19 09:00:00,
2013-04-19 02:05:00,45.4,43.2,30.27,North,9,0.0,0.0,92,0.00,,,0.00,WeatherCatV1.15B25,2013-04-19 09:05:00,
2013-04-19 02:10:00,45.2,42.7,30.27,North,9,0.0,0.0,91,0.00,,,0.00,WeatherCatV1.15B25,2013-04-19 09:10:00,
2013-04-19 02:15:00,44.9,42.4,30.27,North,9,0.0,0.0,91,0.00,,,0.00,WeatherCatV1.15B25,2013-04-19 09:15:00,
2013-04-19 02:20:00,44.6,42.1,30.27,North,9,0.0,0.0,91,0.00,,,0.00,WeatherCatV1.15B25,2013-04-19 09:20:00,
2013-04-19 02:25:00,44.5,42.0,30.27,North,9,0.0,0.0,91,0.00,,,0.00,WeatherCatV1.15B25,2013-04-19 09:25:00,
2013-04-19 02:30:00,44.5,42.3,30.27,North,9,0.0,0.0,92,0.00,,,0.00,WeatherCatV1.15B25,2013-04-19 09:30:00,
2013-04-19 02:35:00,44.6,42.4,30.27,North,9,0.0,0.0,92,0.00,,,0.00,WeatherCatV1.15B25,2013-04-19 09:35:00,
2013-04-19 02:40:00,44.7,42.5,30.28,North,9,0.0,0.0,92,0.00,,,0.00,WeatherCatV1.15B25,2013-04-19 09:40:00,
2013-04-19 02:45:00,44.7,42.5,30.27,North,9,0.0,0.0,92,0.00,,,0.00,WeatherCatV1.15B25,2013-04-19 09:45:00,
2013-04-19 02:50:00,44.6,42.4,30.27,North,9,0.0,0.0,92,0.00,,,0.00,WeatherCatV1.15B25,2013-04-19 09:50:00,
2013-04-19 02:55:00,44.5,42.3,30.27,North,9,0.0,0.0,92,0.00,,,0.00,WeatherCatV1.15B25,2013-04-19 09:55:00,
2013-04-19 03:00:00,44.3,42.1,30.27,North,9,0.0,0.0,92,0.00,,,0.00,WeatherCatV1.15B25,2013-04-19 10:00:00,
2013-04-19 03:05:00,44.2,42.0,30.27,North,9,0.0,0.0,92,0.00,,,0.00,WeatherCatV1.15B25,2013-04-19 10:05:00,
2013-04-19 03:10:00,44.0,41.8,30.27,North,9,0.0,0.0,92,0.00,,,0.00,WeatherCatV1.15B25,2013-04-19 10:10:00,
2013-04-19 03:15:00,43.8,41.6,30.27,North,9,0.0,0.0,92,0.00,,,0.00,WeatherCatV1.15B25,2013-04-19 10:15:00,
2013-04-19 03:20:00,43.7,41.5,30.27,North,9,0.0,0.0,92,0.00,,,0.00,WeatherCatV1.15B25,2013-04-19 10:20:00,
2013-04-19 03:25:00,43.7,41.5,30.27,North,9,0.0,0.0,92,0.00,,,0.00,WeatherCatV1.15B25,2013-04-19 10:25:00,
2013-04-19 03:30:00,43.6,41.4,30.27,North,9,0.0,0.0,92,0.00,,,0.00,WeatherCatV1.15B25,2013-04-19 10:30:00,
2013-04-19 03:35:00,43.5,41.3,30.27,North,9,0.0,0.0,92,0.00,,,0.00,WeatherCatV1.15B25,2013-04-19 10:35:00,
2013-04-19 03:40:00,43.4,41.2,30.27,North,9,0.0,0.0,92,0.00,,,0.00,WeatherCatV1.15B25,2013-04-19 10:40:00,
2013-04-19 03:45:00,43.4,41.5,30.26,North,9,0.0,0.0,93,0.00,,,0.00,WeatherCatV1.15B25,2013-04-19 10:45:00,
2013-04-19 03:50:00,43.6,41.7,30.27,North,9,0.0,0.0,93,0.00,,,0.00,WeatherCatV1.15B25,2013-04-19 10:50:00,
2013-04-19 03:55:00,43.9,42.0,30.27,North,9,0.0,0.0,93,0.00,,,0.00,WeatherCatV1.15B25,2013-04-19 10:55:00,
2013-04-19 04:00:00,43.9,42.0,30.27,North,9,0.0,0.0,93,0.00,,,0.00,WeatherCatV1.15B25,2013-04-19 11:00:00,
2013-04-19 04:05:00,43.8,41.9,30.27,North,9,0.0,0.0,93,0.00,,,0.00,WeatherCatV1.15B25,2013-04-19 11:05:00,
2013-04-19 04:10:00,43.7,41.8,30.27,North,9,0.0,0.0,93,0.00,,,0.00,WeatherCatV1.15B25,2013-04-19 11:10:00,
2013-04-19 04:15:00,43.7,41.8,30.26,North,9,0.0,0.0,93,0.00,,,0.00,WeatherCatV1.15B25,2013-04-19 11:15:00,
2013-04-19 04:20:00,43.8,41.9,30.26,North,9,0.0,0.0,93,0.00,,,0.00,WeatherCatV1.15B25,2013-04-19 11:20:00,
2013-04-19 04:25:00,44.1,42.2,30.27,North,9,0.0,1.0,93,0.00,,,0.00,WeatherCatV1.15B25,2013-04-19 11:25:00,
2013-04-19 04:30:00,43.9,42.0,30.27,North,9,0.0,0.0,93,0.00,,,0.00,WeatherCatV1.15B25,2013-04-19 11:30:00,
2013-04-19 04:35:00,43.5,41.6,30.27,North,9,0.0,1.0,93,0.00,,,0.00,WeatherCatV1.15B25,2013-04-19 11:35:00,
2013-04-19 04:40:00,43.6,41.7,30.27,North,9,0.0,1.0,93,0.00,,,0.00,WeatherCatV1.15B25,2013-04-19 11:40:00,
2013-04-19 04:45:00,43.7,41.8,30.26,North,9,0.0,0.0,93,0.00,,,0.00,WeatherCatV1.15B25,2013-04-19 11:45:00,
2013-04-19 04:50:00,43.6,41.7,30.26,North,9,0.0,0.0,93,0.00,,,0.00,WeatherCatV1.15B25,2013-04-19 11:50:00,
2013-04-19 04:55:00,43.6,41.7,30.26,North,9,0.0,0.0,93,0.00,,,0.00,WeatherCatV1.15B25,2013-04-19 11:55:00,
2013-04-19 05:00:00,43.9,42.0,30.26,North,9,0.0,0.0,93,0.00,,,0.00,WeatherCatV1.15B25,2013-04-19 12:00:00,
2013-04-19 05:05:00,44.0,42.1,30.27,North,9,0.0,0.0,93,0.00,,,0.00,WeatherCatV1.15B25,2013-04-19 12:05:00,
2013-04-19 05:10:00,43.9,42.0,30.27,North,9,0.0,0.0,93,0.00,,,0.00,WeatherCatV1.15B25,2013-04-19 12:10:00,
2013-04-19 05:15:00,43.8,41.9,30.27,North,9,0.0,0.0,93,0.00,,,0.00,WeatherCatV1.15B25,2013-04-19 12:15:00,
2013-04-19 05:20:00,44.0,42.4,30.27,North,9,0.0,2.0,94,0.00,,,0.00,WeatherCatV1.15B25,2013-04-19 12:20:00,
2013-04-19 05:25:00,44.3,42.4,30.27,North,9,0.0,1.0,93,0.00,,,0.00,WeatherCatV1.15B25,2013-04-19 12:25:00,
2013-04-19 05:30:00,44.5,42.9,30.26,North,9,0.0,0.0,94,0.00,,,0.00,WeatherCatV1.15B25,2013-04-19 12:30:00,
2013-04-19 05:35:00,45.0,43.4,30.26,North,9,0.0,1.0,94,0.00,,,0.00,WeatherCatV1.15B25,2013-04-19 12:35:00,
2013-04-19 05:40:00,45.0,43.1,30.26,North,9,1.0,1.0,93,0.00,,,0.00,WeatherCatV1.15B25,2013-04-19 12:40:00,
2013-04-19 05:45:00,45.1,43.5,30.26,North,9,0.0,1.0,94,0.00,,,0.00,WeatherCatV1.15B25,2013-04-19 12:45:00,
2013-04-19 05:50:00,45.4,43.8,30.26,North,9,0.0,0.0,94,0.00,,,0.00,WeatherCatV1.15B25,2013-04-19 12:50:00,
2013-04-19 05:55:00,45.4,43.5,30.26,North,9,0.0,0.0,93,0.00,,,0.00,WeatherCatV1.15B25,2013-04-19 12:55:00,
2013-04-19 06:00:00,45.0,43.1,30.27,North,0,2.0,2.0,93,0.00,,,0.00,WeatherCatV1.15B25,2013-04-19 13:00:00,
2013-04-19 06:05:00,44.2,42.0,30.27,NNW,348,0.0,3.0,92,0.00,,,0.00,WeatherCatV1.15B25,2013-04-19 13:05:00,
2013-04-19 06:10:00,43.9,42.0,30.27,NNW,348,0.0,1.0,93,0.00,,,0.00,WeatherCatV1.15B25,2013-04-19 13:10:00,
2013-04-19 06:15:00,43.7,41.8,30.28,NNW,348,0.0,1.0,93,0.00,,,0.00,WeatherCatV1.15B25,2013-04-19 13:15:00,
2013-04-19 06:20:00,43.4,41.5,30.28,NNW,348,0.0,1.0,93,0.00,,,0.00,WeatherCatV1.15B25,2013-04-19 13:20:00,
2013-04-19 06:25:00,43.4,41.5,30.28,NNW,339,1.0,2.0,93,0.00,,,0.00,WeatherCatV1.15B25,2013-04-19 13:25:00,
2013-04-19 06:30:00,43.6,41.7,30.28,NNW,345,2.0,4.0,93,0.00,,,0.00,WeatherCatV1.15B25,2013-04-19 13:30:00,
2013-04-19 06:35:00,44.4,42.8,30.28,NNE,33,3.0,4.0,94,0.00,,,0.00,WeatherCatV1.15B25,2013-04-19 13:35:00,
2013-04-19 06:40:00,44.9,43.3,30.28,NNW,347,1.0,3.0,94,0.00,,,0.00,WeatherCatV1.15B25,2013-04-19 13:40:00,
2013-04-19 06:45:00,45.2,43.6,30.28,North,351,3.0,3.0,94,0.00,,,0.00,WeatherCatV1.15B25,2013-04-19 13:45:00,
2013-04-19 06:50:00,45.4,43.8,30.28,NNW,344,2.0,3.0,94,0.00,,,0.00,WeatherCatV1.15B25,2013-04-19 13:50:00,
2013-04-19 06:55:00,45.4,43.8,30.28,NNW,348,1.0,2.0,94,0.00,,,0.00,WeatherCatV1.15B25,2013-04-19 13:55:00,
2013-04-19 07:00:00,45.3,43.7,30.28,NNW,348,1.0,1.0,94,0.00,,,0.00,WeatherCatV1.15B25,2013-04-19 14:00:00,
2013-04-19 07:05:00,45.4,43.8,30.29,NNW,348,1.0,1.0,94,0.00,,,0.00,WeatherCatV1.15B25,2013-04-19 14:05:00,
2013-04-19 07:10:00,45.3,43.4,30.29,NNW,348,0.0,0.0,93,0.00,,,0.00,WeatherCatV1.15B25,2013-04-19 14:10:00,
2013-04-19 07:15:00,45.4,43.8,30.28,NNW,348,0.0,0.0,94,0.00,,,0.00,WeatherCatV1.15B25,2013-04-19 14:15:00,
2013-04-19 07:20:00,45.5,43.9,30.29,NNW,348,1.0,2.0,94,0.00,,,0.00,WeatherCatV1.15B25,2013-04-19 14:20:00,
2013-04-19 07:25:00,45.5,43.6,30.29,NNW,348,1.0,2.0,93,0.00,,,0.00,WeatherCatV1.15B25,2013-04-19 14:25:00,
2013-04-19 07:30:00,45.6,44.0,30.29,NNW,348,0.0,0.0,94,0.00,,,0.00,WeatherCatV1.15B25,2013-04-19 14:30:00,
2013-04-19 07:35:00,45.6,44.0,30.30,NNW,348,0.0,2.0,94,0.00,,,0.00,WeatherCatV1.15B25,2013-04-19 14:35:00,
2013-04-19 07:40:00,45.9,44.3,30.30,NNW,346,2.0,4.0,94,0.00,,,0.00,WeatherCatV1.15B25,2013-04-19 14:40:00,
2013-04-19 07:45:00,46.3,44.7,30.30,NNW,347,2.0,7.0,94,0.00,,,0.00,WeatherCatV1.15B25,2013-04-19 14:45:00,
2013-04-19 07:50:00,46.7,45.1,30.31,North,0,5.0,6.0,94,0.00,,,0.00,WeatherCatV1.15B25,2013-04-19 14:50:00,
2013-04-19 07:55:00,47.0,45.1,30.30,North,355,4.0,6.0,93,0.00,,,0.00,WeatherCatV1.15B25,2013-04-19 14:55:00,
2013-04-19 08:00:00,47.2,45.3,30.30,NNW,348,4.0,7.0,93,0.00,,,0.00,WeatherCatV1.15B25,2013-04-19 15:00:00,
2013-04-19 08:05:00,47.4,45.5,30.30,NNW,334,0.0,7.0,93,0.00,,,0.00,WeatherCatV1.15B25,2013-04-19 15:05:00,
2013-04-19 08:10:00,47.6,45.7,30.30,North,351,3.0,6.0,93,0.00,,,0.00,WeatherCatV1.15B25,2013-04-19 15:10:00,
2013-04-19 08:15:00,47.8,45.9,30.29,NNW,340,4.0,4.0,93,0.00,,,0.00,WeatherCatV1.15B25,2013-04-19 15:15:00,
2013-04-19 08:20:00,48.2,46.3,30.29,NNW,333,4.0,5.0,93,0.00,,,0.00,WeatherCatV1.15B25,2013-04-19 15:20:00,
2013-04-19 08:25:00,48.6,46.7,30.29,NNE,19,1.0,4.0,93,0.00,,,0.00,WeatherCatV1.15B25,2013-04-19 15:25:00,
2013-04-19 08:30:00,49.0,46.8,30.29,North,355,3.0,6.0,92,0.00,,,0.00,WeatherCatV1.15B25,2013-04-19 15:30:00,
2013-04-19 08:35:00,49.4,47.2,30.29,NNW,341,2.0,5.0,92,0.00,,,0.00,WeatherCatV1.15B25,2013-04-19 15:35:00,
2013-04-19 08:40:00,49.9,47.4,30.29,NNW,338,1.0,3.0,91,0.00,,,0.00,WeatherCatV1.15B25,2013-04-19 15:40:00,
2013-04-19 08:45:00,50.5,47.7,30.28,NNW,335,0.0,5.0,90,0.00,,,0.00,WeatherCatV1.15B25,2013-04-19 15:45:00,
2013-04-19 08:50:00,51.1,48.0,30.28,NNW,333,2.0,5.0,89,0.00,,,0.00,WeatherCatV1.15B25,2013-04-19 15:50:00,
2013-04-19 08:55:00,52.0,48.6,30.28,NNW,331,2.0,4.0,88,0.00,,,0.00,WeatherCatV1.15B25,2013-04-19 15:55:00,
2013-04-19 09:00:00,52.6,48.8,30.30,NNW,348,1.0,3.0,87,0.00,,,0.00,WeatherCatV1.15B25,2013-04-19 16:00:00,
2013-04-19 09:05:00,52.2,47.8,30.30,NNW,344,2.0,6.0,85,0.00,,,0.00,WeatherCatV1.15B25,2013-04-19 16:05:00,
2013-04-19 09:10:00,51.1,46.7,30.30,NNW,346,2.0,4.0,85,0.00,,,0.00,WeatherCatV1.15B25,2013-04-19 16:10:00,
2013-04-19 09:15:00,50.4,46.4,30.30,NNE,12,4.0,5.0,86,0.00,,,0.00,WeatherCatV1.15B25,2013-04-19 16:15:00,
2013-04-19 09:20:00,49.9,46.2,30.30,NNW,340,7.0,8.0,87,0.00,,,0.00,WeatherCatV1.15B25,2013-04-19 16:20:00,
2013-04-19 09:25:00,49.9,46.5,30.30,North,349,5.0,9.0,88,0.00,,,0.00,WeatherCatV1.15B25,2013-04-19 16:25:00,
2013-04-19 09:30:00,50.1,46.7,30.30,NNW,344,4.0,9.0,88,0.00,,,0.00,WeatherCatV1.15B25,2013-04-19 16:30:00,
2013-04-19 09:35:00,50.6,47.2,30.30,NNE,16,3.0,7.0,88,0.00,,,0.00,WeatherCatV1.15B25,2013-04-19 16:35:00,
2013-04-19 09:40:00,51.1,47.7,30.30,NNW,338,3.0,8.0,88,0.00,,,0.00,WeatherCatV1.15B25,2013-04-19 16:40:00,
2013-04-19 09:45:00,51.7,48.0,30.30,North,0,6.0,8.0,87,0.00,,,0.00,WeatherCatV1.15B25,2013-04-19 16:45:00,
2013-04-19 09:50:00,52.3,47.9,30.30,NNW,333,7.0,8.0,85,0.00,,,0.00,WeatherCatV1.15B25,2013-04-19 16:50:00,
2013-04-19 09:55:00,52.7,47.7,30.30,North,355,7.0,12.0,83,0.00,,,0.00,WeatherCatV1.15B25,2013-04-19 16:55:00,
2013-04-19 10:00:00,53.5,48.1,30.30,North,351,7.0,9.0,82,0.00,,,0.00,WeatherCatV1.15B25,2013-04-19 17:00:00,
2013-04-19 10:05:00,53.5,47.8,30.30,North,0,4.0,5.0,81,0.00,,,0.00,WeatherCatV1.15B25,2013-04-19 17:05:00,
2013-04-19 10:10:00,53.3,48.3,30.30,NNW,328,6.0,7.0,83,0.00,,,0.00,WeatherCatV1.15B25,2013-04-19 17:10:00,
2013-04-19 10:15:00,53.6,48.2,30.30,North,355,5.0,5.0,82,0.00,,,0.00,WeatherCatV1.15B25,2013-04-19 17:15:00,
2013-04-19 10:20:00,53.4,48.4,30.30,NW,306,6.0,8.0,83,0.00,,,0.00,WeatherCatV1.15B25,2013-04-19 17:20:00,
2013-04-19 10:25:00,53.5,48.5,30.30,NNW,344,5.0,7.0,83,0.00,,,0.00,WeatherCatV1.15B25,2013-04-19 17:25:00,
2013-04-19 10:30:00,53.3,47.9,30.29,North,355,9.0,12.0,82,0.00,,,0.00,WeatherCatV1.15B25,2013-04-19 17:30:00,
2013-04-19 10:35:00,53.3,47.9,30.29,NW,306,4.0,7.0,82,0.00,,,0.00,WeatherCatV1.15B25,2013-04-19 17:35:00,
2013-04-19 10:40:00,53.7,48.7,30.29,North,355,4.0,5.0,83,0.00,,,0.00,WeatherCatV1.15B25,2013-04-19 17:40:00,
2013-04-19 10:45:00,53.7,48.3,30.29,NNE,12,5.0,8.0,82,0.00,,,0.00,WeatherCatV1.15B25,2013-04-19 17:45:00,
2013-04-19 10:50:00,53.0,48.0,30.30,North,351,5.0,9.0,83,0.00,,,0.00,WeatherCatV1.15B25,2013-04-19 17:50:00,
2013-04-19 10:55:00,52.4,47.4,30.30,NNE,17,5.0,8.0,83,0.00,,,0.00,WeatherCatV1.15B25,2013-04-19 17:55:00,
2013-04-19 11:00:00,52.6,47.9,30.30,North,355,3.0,5.0,84,0.00,,,0.00,WeatherCatV1.15B25,2013-04-19 18:00:00,
2013-04-19 11:05:00,53.3,48.6,30.30,NNW,344,8.0,8.0,84,0.00,,,0.00,WeatherCatV1.15B25,2013-04-19 18:05:00,
2013-04-19 11:10:00,53.4,48.4,30.29,North,355,2.0,5.0,83,0.00,,,0.00,WeatherCatV1.15B25,2013-04-19 18:10:00,
2013-04-19 11:15:00,53.8,48.8,30.29,North,5,3.0,6.0,83,0.00,,,0.00,WeatherCatV1.15B25,2013-04-19 18:15:00,
2013-04-19 11:20:00,53.3,47.9,30.30,North,5,7.0,10.0,82,0.00,,,0.00,WeatherCatV1.15B25,2013-04-19 18:20:00,
2013-04-19 11:25:00,52.4,47.4,30.30,NNW,336,3.0,7.0,83,0.00,,,0.00,WeatherCatV1.15B25,2013-04-19 18:25:00,
2013-04-19 11:30:00,53.0,48.6,30.30,NNE,17,5.0,6.0,85,0.00,,,0.00,WeatherCatV1.15B25,2013-04-19 18:30:00,
2013-04-19 11:35:00,53.6,48.6,30.30,NW,324,3.0,5.0,83,0.00,,,0.00,WeatherCatV1.15B25,2013-04-19 18:35:00,
2013-04-19 11:40:00,53.9,48.5,30.30,NNW,341,6.0,9.0,82,0.00,,,0.00,WeatherCatV1.15B25,2013-04-19 18:40:00,
2013-04-19 11:45:00,53.9,48.5,30.30,NNE,15,7.0,9.0,82,0.00,,,0.00,WeatherCatV1.15B25,2013-04-19 18:45:00,
2013-04-19 11:50:00,54.0,48.6,30.30,North,355,6.0,9.0,82,0.00,,,0.00,WeatherCatV1.15B25,2013-04-19 18:50:00,
2013-04-19 11:55:00,53.7,48.7,30.30,North,355,5.0,8.0,83,0.00,,,0.00,WeatherCatV1.15B25,2013-04-19 18:55:00,
2013-04-19 12:00:00,53.8,48.4,30.30,North,355,7.0,13.0,82,0.00,,,0.00,WeatherCatV1.15B25,2013-04-19 19:00:00,
2013-04-19 12:05:00,54.8,49.1,30.30,North,11,5.0,9.0,81,0.00,,,0.00,WeatherCatV1.15B25,2013-04-19 19:05:00,
2013-04-19 12:10:00,55.3,49.2,30.30,NNE,12,4.0,8.0,80,0.00,,,0.00,WeatherCatV1.15B25,2013-04-19 19:10:00,
2013-04-19 12:15:00,55.3,48.9,30.30,North,351,6.0,8.0,79,0.00,,,0.00,WeatherCatV1.15B25,2013-04-19 19:15:00,
2013-04-19 12:20:00,55.7,49.6,30.29,NNW,340,5.0,10.0,80,0.00,,,0.00,WeatherCatV1.15B25,2013-04-19 19:20:00,
2013-04-19 12:25:00,56.9,49.8,30.29,NW,310,5.0,8.0,77,0.00,,,0.00,WeatherCatV1.15B25,2013-04-19 19:25:00,
2013-04-19 12:30:00,57.1,49.6,30.29,North,355,3.0,8.0,76,0.00,,,0.00,WeatherCatV1.15B25,2013-04-19 19:30:00,
2013-04-19 12:35:00,56.9,49.4,30.29,NNW,344,7.0,9.0,76,0.00,,,0.00,WeatherCatV1.15B25,2013-04-19 19:35:00,
2013-04-19 12:40:00,56.2,49.4,30.28,NNW,328,5.0,10.0,78,0.00,,,0.00,WeatherCatV1.15B25,2013-04-19 19:40:00,
2013-04-19 12:45:00,55.7,48.9,30.28,NNW,344,8.0,10.0,78,0.00,,,0.00,WeatherCatV1.15B25,2013-04-19 19:45:00,
2013-04-19 12:50:00,55.4,49.0,30.28,North,355,5.0,10.0,79,0.00,,,0.00,WeatherCatV1.15B25,2013-04-19 19:50:00,
2013-04-19 12:55:00,55.7,49.3,30.28,North,0,7.0,9.0,79,0.00,,,0.00,WeatherCatV1.15B25,2013-04-19 19:55:00,
2013-04-19 13:00:00,55.5,48.8,30.29,NNW,333,6.0,14.0,78,0.00,,,0.00,WeatherCatV1.15B25,2013-04-19 20:00:00,
2013-04-19 13:05:00,55.8,49.4,30.28,NNW,332,6.0,8.0,79,0.00,,,0.00,WeatherCatV1.15B25,2013-04-19 20:05:00,
2013-04-19 13:10:00,56.8,50.4,30.28,NNE,24,3.0,12.0,79,0.00,,,0.00,WeatherCatV1.15B25,2013-04-19 20:10:00,
2013-04-19 13:15:00,57.5,49.6,30.28,NNE,21,8.0,10.0,75,0.00,,,0.00,WeatherCatV1.15B25,2013-04-19 20:15:00,
2013-04-19 13:20:00,57.1,49.6,30.28,North,355,10.0,11.0,76,0.00,,,0.00,WeatherCatV1.15B25,2013-04-19 20:20:00,
2013-04-19 13:25:00,57.0,49.9,30.28,NNE,22,8.0,11.0,77,0.00,,,0.00,WeatherCatV1.15B25,2013-04-19 20:25:00,
2013-04-19 13:30:00,56.8,49.3,30.28,North,355,7.0,12.0,76,0.00,,,0.00,WeatherCatV1.15B25,2013-04-19 20:30:00,
2013-04-19 13:35:00,56.4,49.3,30.28,North,0,12.0,15.0,77,0.00,,,0.00,WeatherCatV1.15B25,2013-04-19 20:35:00,
2013-04-19 13:40:00,56.9,49.8,30.28,NNE,12,5.0,12.0,77,0.00,,,0.00,WeatherCatV1.15B25,2013-04-19 20:40:00,
2013-04-19 13:45:00,58.0,50.5,30.28,NNE,13,7.0,14.0,76,0.00,,,0.00,WeatherCatV1.15B25,2013-04-19 20:45:00,
2013-04-19 13:50:00,59.2,51.3,30.28,NNE,24,10.0,10.0,75,0.00,,,0.00,WeatherCatV1.15B25,2013-04-19 20:50:00,
2013-04-19 13:55:00,59.5,50.8,30.28,NNW,339,6.0,19.0,73,0.00,,,0.00,WeatherCatV1.15B25,2013-04-19 20:55:00,
2013-04-19 14:00:00,59.7,51.4,30.28,NNW,336,6.0,11.0,74,0.00,,,0.00,WeatherCatV1.15B25,2013-04-19 21:00:00,
2013-04-19 14:05:00,59.1,51.2,30.28,North,355,8.0,14.0,75,0.00,,,0.00,WeatherCatV1.15B25,2013-04-19 21:05:00,
2013-04-19 14:10:00,58.3,50.4,30.28,North,355,11.0,13.0,75,0.00,,,0.00,WeatherCatV1.15B25,2013-04-19 21:10:00,
2013-04-19 14:15:00,57.8,50.3,30.28,NNW,337,9.0,15.0,76,0.00,,,0.00,WeatherCatV1.15B25,2013-04-19 21:15:00,
2013-04-19 14:20:00,57.6,50.4,30.28,North,355,10.0,17.0,77,0.00,,,0.00,WeatherCatV1.15B25,2013-04-19 21:20:00,
2013-04-19 14:25:00,57.5,50.7,30.28,North,0,7.0,15.0,78,0.00,,,0.00,WeatherCatV1.15B25,2013-04-19 21:25:00,
2013-04-19 14:30:00,57.6,50.4,30.28,NNW,338,9.0,16.0,77,0.00,,,0.00,WeatherCatV1.15B25,2013-04-19 21:30:00,
2013-04-19 14:35:00,57.7,51.2,30.28,NNW,346,7.0,12.0,79,0.00,,,0.00,WeatherCatV1.15B25,2013-04-19 21:35:00,
2013-04-19 14:40:00,57.7,51.2,30.28,NNW,340,8.0,16.0,79,0.00,,,0.00,WeatherCatV1.15B25,2013-04-19 21:40:00,
2013-04-19 14:45:00,57.4,50.6,30.28,North,0,10.0,16.0,78,0.00,,,0.00,WeatherCatV1.15B25,2013-04-19 21:45:00,
2013-04-19 14:50:00,57.6,50.8,30.28,NNW,327,8.0,17.0,78,0.00,,,0.00,WeatherCatV1.15B25,2013-04-19 21:50:00,
2013-04-19 14:55:00,57.8,51.0,30.28,North,355,12.0,16.0,78,0.00,,,0.00,WeatherCatV1.15B25,2013-04-19 21:55:00,
2013-04-19 15:00:00,58.0,51.2,30.28,NNW,338,10.0,15.0,78,0.00,,,0.00,WeatherCatV1.15B25,2013-04-19 22:00:00,
2013-04-19 15:05:00,57.9,51.1,30.27,North,0,8.0,11.0,78,0.00,,,0.00,WeatherCatV1.15B25,2013-04-19 22:05:00,
2013-04-19 15:10:00,57.8,51.0,30.28,North,351,11.0,17.0,78,0.00,,,0.00,WeatherCatV1.15B25,2013-04-19 22:10:00,
2013-04-19 15:15:00,57.7,50.9,30.27,North,355,12.0,16.0,78,0.00,,,0.00,WeatherCatV1.15B25,2013-04-19 22:15:00,
2013-04-19 15:20:00,57.1,50.6,30.27,North,349,13.0,16.0,79,0.00,,,0.00,WeatherCatV1.15B25,2013-04-19 22:20:00,
2013-04-19 15:25:00,56.6,50.2,30.27,NNW,329,12.0,16.0,79,0.00,,,0.00,WeatherCatV1.15B25,2013-04-19 22:25:00,
2013-04-19 15:30:00,56.6,50.5,30.27,North,0,14.0,22.0,80,0.00,,,0.00,WeatherCatV1.15B25,2013-04-19 22:30:00,
2013-04-19 15:35:00,56.7,50.3,30.27,NNW,336,14.0,20.0,79,0.00,,,0.00,WeatherCatV1.15B25,2013-04-19 22:35:00,
2013-04-19 15:40:00,56.3,50.2,30.27,North,350,7.0,17.0,80,0.00,,,0.00,WeatherCatV1.15B25,2013-04-19 22:40:00,
2013-04-19 15:45:00,56.3,50.2,30.27,North,5,12.0,12.0,80,0.00,,,0.00,WeatherCatV1.15B25,2013-04-19 22:45:00,
2013-04-19 15:50:00,56.2,50.4,30.27,North,0,14.0,16.0,81,0.00,,,0.00,WeatherCatV1.15B25,2013-04-19 22:50:00,
2013-04-19 15:55:00,55.8,50.1,30.27,NNW,343,8.0,17.0,81,0.00,,,0.00,WeatherCatV1.15B25,2013-04-19 22:55:00,
2013-04-19 16:00:00,55.7,50.0,30.26,North,355,12.0,14.0,81,0.00,,,0.00,WeatherCatV1.15B25,2013-04-19 23:00:00,
2013-04-19 16:05:00,55.5,50.1,30.26,North,5,10.0,15.0,82,0.00,,,0.00,WeatherCatV1.15B25,2013-04-19 23:05:00,
2013-04-19 16:10:00,55.3,49.9,30.27,NNW,327,6.0,18.0,82,0.00,,,0.00,WeatherCatV1.15B25,2013-04-19 23:10:00,
2013-04-19 16:15:00,55.1,49.7,30.26,NNE,20,7.0,17.0,82,0.00,,,0.00,WeatherCatV1.15B25,2013-04-19 23:15:00,
2013-04-19 16:20:00,55.1,49.7,30.26,NNW,336,9.0,14.0,82,0.00,,,0.00,WeatherCatV1.15B25,2013-04-19 23:20:00,
2013-04-19 16:25:00,54.9,49.8,30.26,NNW,348,13.0,19.0,83,0.00,,,0.00,WeatherCatV1.15B25,2013-04-19 23:25:00,
2013-04-19 16:30:00,54.6,49.5,30.26,North,0,7.0,20.0,83,0.00,,,0.00,WeatherCatV1.15B25,2013-04-19 23:30:00,
2013-04-19 16:35:00,54.8,49.7,30.27,NNW,344,10.0,17.0,83,0.00,,,0.00,WeatherCatV1.15B25,2013-04-19 23:35:00,
2013-04-19 16:40:00,54.5,49.4,30.26,NNW,333,10.0,19.0,83,0.00,,,0.00,WeatherCatV1.15B25,2013-04-19 23:40:00,
2013-04-19 16:45:00,53.9,49.2,30.26,NNW,347,16.0,17.0,84,0.00,,,0.00,WeatherCatV1.15B25,2013-04-19 23:45:00,
2013-04-19 16:50:00,53.9,49.2,30.26,NNE,13,9.0,17.0,84,0.00,,,0.00,WeatherCatV1.15B25,2013-04-19 23:50:00,
2013-04-19 16:55:00,53.9,49.5,30.27,North,0,7.0,14.0,85,0.00,,,0.00,WeatherCatV1.15B25,2013-04-19 23:55:00,
2013-04-19 17:00:00,53.5,49.4,30.26,NNE,28,8.0,15.0,86,0.00,,,0.00,WeatherCatV1.15B25,2013-04-20 00:00:00,
2013-04-19 17:05:00,53.3,49.2,30.26,North,9,10.0,18.0,86,0.00,,,0.00,WeatherCatV1.15B25,2013-04-20 00:05:00,
2013-04-19 17:10:00,53.2,49.4,30.26,NNW,348,8.0,14.0,87,0.00,,,0.00,WeatherCatV1.15B25,2013-04-20 00:10:00,
2013-04-19 17:15:00,53.5,49.7,30.26,North,9,6.0,9.0,87,0.00,,,0.00,WeatherCatV1.15B25,2013-04-20 00:15:00,
2013-04-19 17:20:00,53.7,49.6,30.26,NNE,15,3.0,16.0,86,0.00,,,0.00,WeatherCatV1.15B25,2013-04-20 00:20:00,
2013-04-19 17:25:00,53.5,49.7,30.26,NW,313,10.0,12.0,87,0.00,,,0.00,WeatherCatV1.15B25,2013-04-20 00:25:00,
2013-04-19 17:30:00,53.2,49.4,30.26,NNE,19,4.0,17.0,87,0.00,,,0.00,WeatherCatV1.15B25,2013-04-20 00:30:00,
2013-04-19 17:35:00,53.0,49.5,30.25,NNW,330,5.0,10.0,88,0.00,,,0.00,WeatherCatV1.15B25,2013-04-20 00:35:00,
2013-04-19 17:40:00,52.9,49.4,30.25,NNW,344,8.0,11.0,88,0.00,,,0.00,WeatherCatV1.15B25,2013-04-20 00:40:00,
2013-04-19 17:45:00,52.6,49.1,30.25,North,350,4.0,16.0,88,0.00,,,0.00,WeatherCatV1.15B25,2013-04-20 00:45:00,
2013-04-19 17:50:00,52.5,49.0,30.25,North,11,6.0,7.0,88,0.00,,,0.00,WeatherCatV1.15B25,2013-04-20 00:50:00,
2013-04-19 17:55:00,52.8,49.6,30.25,North,349,5.0,13.0,89,0.00,,,0.00,WeatherCatV1.15B25,2013-04-20 00:55:00,
2013-04-19 18:00:00,53.0,49.5,30.25,NW,318,4.0,8.0,88,0.00,,,0.00,WeatherCatV1.15B25,2013-04-20 01:00:00,
2013-04-19 18:05:00,53.3,49.8,30.25,NNE,16,9.0,13.0,88,0.00,,,0.00,WeatherCatV1.15B25,2013-04-20 01:05:00,
2013-04-19 18:10:00,53.5,50.0,30.25,North,351,5.0,8.0,88,0.00,,,0.00,WeatherCatV1.15B25,2013-04-20 01:10:00,
2013-04-19 18:15:00,53.4,49.6,30.24,NNW,340,8.0,12.0,87,0.00,,,0.00,WeatherCatV1.15B25,2013-04-20 01:15:00,
2013-04-19 18:20:00,53.3,49.5,30.24,NNW,348,4.0,10.0,87,0.00,,,0.00,WeatherCatV1.15B25,2013-04-20 01:20:00,
2013-04-19 18:25:00,53.3,49.5,30.24,NW,306,5.0,11.0,87,0.00,,,0.00,WeatherCatV1.15B25,2013-04-20 01:25:00,
2013-04-19 18:30:00,53.3,49.5,30.24,NNW,342,7.0,10.0,87,0.00,,,0.00,WeatherCatV1.15B25,2013-04-20 01:30:00,
2013-04-19 18:35:00,53.3,49.5,30.24,NNW,336,7.0,10.0,87,0.00,,,0.00,WeatherCatV1.15B25,2013-04-20 01:35:00,
2013-04-19 18:40:00,53.2,49.4,30.24,North,0,8.0,13.0,87,0.00,,,0.00,WeatherCatV1.15B25,2013-04-20 01:40:00,
2013-04-19 18:45:00,53.2,49.4,30.24,North,355,4.0,7.0,87,0.00,,,0.00,WeatherCatV1.15B25,2013-04-20 01:45:00,
2013-04-19 18:50:00,53.1,49.3,30.24,NNW,344,6.0,9.0,87,0.00,,,0.00,WeatherCatV1.15B25,2013-04-20 01:50:00,
2013-04-19 18:55:00,52.6,48.8,30.24,NNW,344,5.0,11.0,87,0.00,,,0.00,WeatherCatV1.15B25,2013-04-20 01:55:00,
2013-04-19 19:00:00,52.3,48.9,30.24,North,5,6.0,10.0,88,0.00,,,0.00,WeatherCatV1.15B25,2013-04-20 02:00:00,
2013-04-19 19:05:00,52.1,48.7,30.24,North,355,6.0,14.0,88,0.00,,,0.00,WeatherCatV1.15B25,2013-04-20 02:05:00,
2013-04-19 19:10:00,52.0,48.9,30.24,North,355,12.0,12.0,89,0.00,,,0.00,WeatherCatV1.15B25,2013-04-20 02:10:00,
2013-04-19 19:15:00,51.7,48.6,30.24,NNW,340,8.0,14.0,89,0.00,,,0.00,WeatherCatV1.15B25,2013-04-20 02:15:00,
2013-04-19 19:20:00,51.4,48.3,30.24,North,355,10.0,11.0,89,0.00,,,0.00,WeatherCatV1.15B25,2013-04-20 02:20:00,
2013-04-19 19:25:00,51.2,48.1,30.24,NNW,347,10.0,11.0,89,0.00,,,0.00,WeatherCatV1.15B25,2013-04-20 02:25:00,
2013-04-19 19:30:00,50.7,47.9,30.24,North,5,8.0,12.0,90,0.00,,,0.00,WeatherCatV1.15B25,2013-04-20 02:30:00,
2013-04-19 19:35:00,50.4,47.9,30.24,NNW,342,4.0,11.0,91,0.00,,,0.00,WeatherCatV1.15B25,2013-04-20 02:35:00,
2013-04-19 19:40:00,50.2,47.7,30.23,NNW,338,5.0,11.0,91,0.00,,,0.00,WeatherCatV1.15B25,2013-04-20 02:40:00,
2013-04-19 19:45:00,49.8,47.3,30.24,NNW,347,4.0,10.0,91,0.00,,,0.00,WeatherCatV1.15B25,2013-04-20 02:45:00,
2013-04-19 19:50:00,49.5,47.3,30.24,NNW,341,10.0,12.0,92,0.00,,,0.00,WeatherCatV1.15B25,2013-04-20 02:50:00,
2013-04-19 19:55:00,49.2,47.0,30.24,NW,325,7.0,7.0,92,0.00,,,0.00,WeatherCatV1.15B25,2013-04-20 02:55:00,
2013-04-19 20:00:00,49.0,47.1,30.24,NNE,12,12.0,12.0,93,0.00,,,0.00,WeatherCatV1.15B25,2013-04-20 03:00:00,
2013-04-19 20:05:00,48.6,46.7,30.24,North,355,6.0,12.0,93,0.00,,,0.00,WeatherCatV1.15B25,2013-04-20 03:05:00,
2013-04-19 20:10:00,48.4,46.5,30.24,North,5,6.0,9.0,93,0.00,,,0.00,WeatherCatV1.15B25,2013-04-20 03:10:00,
2013-04-19 20:15:00,48.2,46.6,30.24,NW,314,8.0,11.0,94,0.00,,,0.00,WeatherCatV1.15B25,2013-04-20 03:15:00,
2013-04-19 20:20:00,48.2,46.6,30.24,NW,318,11.0,12.0,94,0.00,,,0.00,WeatherCatV1.15B25,2013-04-20 03:20:00,
2013-04-19 20:25:00,48.1,46.5,30.24,North,0,5.0,12.0,94,0.00,,,0.00,WeatherCatV1.15B25,2013-04-20 03:25:00,
2013-04-19 20:30:00,48.1,46.5,30.24,North,0,5.0,10.0,94,0.00,,,0.00,WeatherCatV1.15B25,2013-04-20 03:30:00,
2013-04-19 20:35:00,48.2,46.8,30.25,NNE,19,12.0,12.0,95,0.00,,,0.00,WeatherCatV1.15B25,2013-04-20 03:35:00,
2013-04-19 20:40:00,48.2,46.8,30.24,NNW,344,8.0,8.0,95,0.00,,,0.00,WeatherCatV1.15B25,2013-04-20 03:40:00,
2013-04-19 20:45:00,48.2,46.8,30.24,North,0,5.0,9.0,95,0.00,,,0.00,WeatherCatV1.15B25,2013-04-20 03:45:00,
2013-04-19 20:50:00,48.3,46.9,30.24,WNW,302,5.0,13.0,95,0.00,,,0.00,WeatherCatV1.15B25,2013-04-20 03:50:00,
2013-04-19 20:55:00,48.4,47.0,30.24,NNW,335,8.0,9.0,95,0.00,,,0.00,WeatherCatV1.15B25,2013-04-20 03:55:00,
2013-04-19 21:00:00,48.4,47.0,30.24,North,355,7.0,10.0,95,0.00,,,0.00,WeatherCatV1.15B25,2013-04-20 04:00:00,
2013-04-19 21:01:00,48.4,47.0,30.24,North,5,6.0,10.0,95,0.00,,,0.00,WeatherCatV1.15B25,2013-04-20 04:01:00,
2013-04-19 21:06:00,48.4,47.0,30.24,NW,321,6.0,13.0,95,0.00,,,0.00,WeatherCatV1.15B25,2013-04-20 04:06:00,
2013-04-19 21:11:00,48.5,47.1,30.24,North,0,7.0,13.0,95,0.00,,,0.00,WeatherCatV1.15B25,2013-04-20 04:11:00,
2013-04-19 21:16:00,48.5,47.1,30.24,NNW,348,9.0,12.0,95,0.00,,,0.00,WeatherCatV1.15B25,2013-04-20 04:16:00,
2013-04-19 21:19:00,48.5,47.1,30.24,North,355,6.0,13.0,95,0.00,,,0.00,WeatherCatV1.15B25,2013-04-20 04:19:00,
2013-04-19 21:24:00,48.5,47.1,30.25,NNW,348,7.0,10.0,95,0.00,,,0.00,WeatherCatV1.15B25,2013-04-20 04:24:00,
2013-04-19 21:25:00,48.5,47.1,30.25,North,5,8.0,11.0,95,0.00,,,0.00,WeatherCatV1.15B25,2013-04-20 04:25:00,
2013-04-19 21:30:00,48.6,47.2,30.24,NNW,346,6.0,6.0,95,0.00,,,0.00,WeatherCatV1.15B25,2013-04-20 04:30:00,
2013-04-19 21:35:00,48.6,47.2,30.24,NNW,342,8.0,8.0,95,0.00,,,0.00,WeatherCatV1.15B25,2013-04-20 04:35:00,
2013-04-19 21:40:00,48.6,47.2,30.25,NNE,19,3.0,11.0,95,0.00,,,0.00,WeatherCatV1.15B25,2013-04-20 04:40:00,
2013-04-19 21:45:00,48.6,47.2,30.25,North,11,4.0,7.0,95,0.00,,,0.00,WeatherCatV1.15B25,2013-04-20 04:45:00,
2013-04-19 21:50:00,48.7,47.3,30.25,NNW,336,5.0,6.0,95,0.00,,,0.00,WeatherCatV1.15B25,2013-04-20 04:50:00,
2013-04-19 21:55:00,48.7,47.3,30.25,North,349,3.0,13.0,95,0.00,,,0.00,WeatherCatV1.15B25,2013-04-20 04:55:00,
2013-04-19 22:00:00,48.8,47.4,30.24,NNW,328,7.0,12.0,95,0.00,,,0.00,WeatherCatV1.15B25,2013-04-20 05:00:00,
2013-04-19 22:05:00,48.9,47.2,30.25,NNW,336,6.0,7.0,94,0.00,,,0.00,WeatherCatV1.15B25,2013-04-20 05:05:00,
2013-04-19 22:10:00,48.9,47.2,30.25,NNW,331,8.0,10.0,94,0.00,,,0.00,WeatherCatV1.15B25,2013-04-20 05:10:00,
2013-04-19 22:15:00,48.9,47.2,30.25,North,5,8.0,8.0,94,0.00,,,0.00,WeatherCatV1.15B25,2013-04-20 05:15:00,
2013-04-19 22:20:00,48.9,47.2,30.25,NNW,346,5.0,9.0,94,0.00,,,0.00,WeatherCatV1.15B25,2013-04-20 05:20:00,
2013-04-19 22:25:00,48.8,47.2,30.25,North,5,10.0,12.0,94,0.00,,,0.00,WeatherCatV1.15B25,2013-04-20 05:25:00,
2013-04-19 22:30:00,48.8,46.9,30.25,North,355,9.0,13.0,93,0.00,,,0.00,WeatherCatV1.15B25,2013-04-20 05:30:00,
2013-04-19 22:35:00,48.8,46.9,30.25,NNW,344,8.0,8.0,93,0.00,,,0.00,WeatherCatV1.15B25,2013-04-20 05:35:00,
2013-04-19 22:40:00,48.8,46.9,30.24,NW,319,4.0,14.0,93,0.00,,,0.00,WeatherCatV1.15B25,2013-04-20 05:40:00,
2013-04-19 22:45:00,48.8,46.9,30.24,North,0,10.0,11.0,93,0.00,,,0.00,WeatherCatV1.15B25,2013-04-20 05:45:00,
2013-04-19 22:50:00,48.8,46.9,30.24,North,349,7.0,12.0,93,0.00,,,0.00,WeatherCatV1.15B25,2013-04-20 05:50:00,
2013-04-19 22:55:00,48.7,46.8,30.25,NNW,339,6.0,9.0,93,0.00,,,0.00,WeatherCatV1.15B25,2013-04-20 05:55:00,
2013-04-19 23:00:00,48.6,46.7,30.24,NNW,342,7.0,9.0,93,0.00,,,0.00,WeatherCatV1.15B25,2013-04-20 06:00:00,
2013-04-19 23:05:00,48.6,46.7,30.24,North,0,6.0,10.0,93,0.00,,,0.00,WeatherCatV1.15B25,2013-04-20 06:05:00,
2013-04-19 23:10:00,48.6,46.7,30.24,NNW,346,10.0,16.0,93,0.00,,,0.00,WeatherCatV1.15B25,2013-04-20 06:10:00,
2013-04-19 23:15:00,48.6,46.7,30.24,North,355,4.0,9.0,93,0.00,,,0.00,WeatherCatV1.15B25,2013-04-20 06:15:00,
2013-04-19 23:20:00,48.6,46.7,30.25,North,355,6.0,13.0,93,0.00,,,0.00,WeatherCatV1.15B25,2013-04-20 06:20:00,
2013-04-19 23:25:00,48.5,46.6,30.24,NE,42,5.0,7.0,93,0.00,,,0.00,WeatherCatV1.15B25,2013-04-20 06:25:00,
2013-04-19 23:30:00,48.5,46.6,30.25,North,355,2.0,5.0,93,0.00,,,0.00,WeatherCatV1.15B25,2013-04-20 06:30:00,
2013-04-19 23:35:00,48.4,46.2,30.25,NNW,342,3.0,5.0,92,0.00,,,0.00,WeatherCatV1.15B25,2013-04-20 06:35:00,
2013-04-19 23:40:00,48.3,46.1,30.25,NNW,338,3.0,4.0,92,0.00,,,0.00,WeatherCatV1.15B25,2013-04-20 06:40:00,
2013-04-19 23:45:00,48.2,46.0,30.25,NW,323,6.0,8.0,92,0.00,,,0.00,WeatherCatV1.15B25,2013-04-20 06:45:00,
2013-04-19 23:50:00,48.2,46.3,30.25,NW,325,5.0,7.0,93,0.00,,,0.00,WeatherCatV1.15B25,2013-04-20 06:50:00,
2013-04-19 23:55:00,48.2,46.3,30.25,North,355,6.0,6.0,93,0.00,,,0.00,WeatherCatV1.15B25,2013-04-20 06:55:00,